SJ-11-01 - Orbit

View from above orbital plane
View from above orbital plane
View from above satellite
View from above satellite

Ground track
Ground track

The orbit data is extracted from the following two-line orbital elements,

1 36088U 09061A   13142.43088203  .00000585  00000-0  13235-3 0  9344
2 36088 098.0906 196.3113 0009877 219.1279 140.9209 14.59688030187729
Epoch (UTC): 22 May 2013 10:20:28
Eccentricity: 0.0009877
inclination: 98.0906°
perigee height: 687 km
apogee height: 701 km
right ascension of ascending node: 196.3113°
argument of perigee: 219.1279°
revolutions per day: 14.59688030
mean anomaly at epoch: 140.9209°
orbit number at epoch: 18772

The dashed part of the orbit path shows where the satellite is in the earth's shadow,  

Developed and maintained by Chris Peat, Heavens-Above GmbH. Please read the updated FAQ before sending e-mail. Imprint. DLR